Regional Weather Roundup
Issued by NWS

Home | Current Version | Previous Version | Graphics & Text | Print | Product List | Glossary On
Versions: 1 2 3 4 5 6 7 8 9 10 11 12 13 14 15 16 17 18 19 20 21 22 23 24 25 26 27 28 29 30 31 32 33 34 35 36 37 38 39 40 41 42 43 44 45 46 47 48 49 50
803
ASUS45 KABQ 241901
RWRNM
NEW MEXICO REGIONAL WEATHER ROUNDUP
NATIONAL WEATHER SERVICE ALBUQUERQUE NM
100 PM MDT SAT JUN 24 2017

NOTE: "FAIR" MEANS FEW OR NO CLOUDS BELOW 12,000 FEET AGL WITH NO
       SIGNIFICANT WEATHER OR OBSTRUCTIONS TO VISION.

      THIS PRODUCT IS RELEASED AS TWO VERSIONS.  ONE VERSION NEAR
      THE TOP OF THE HOUR CONTAINING PRELIMINARY DATA FROM ALBUQUERQUE
      AND OTHER STATIONS.  A FINAL VERSION WITH ADDITIONAL DATA IS
      ISSUED ABOUT 10 MINUTES AFTER THE HOUR.

NMZ501-503-504-510>518-242000-
NORTHWEST PLATEAU/NORTHCENTRAL MOUNTAINS

CITY           SKY/WX    TMP DP  RH WIND       PRES   REMARKS
FARMINGTON     FAIR      87  31  13 VRB7      30.16F
LOS ALAMOS     FAIR      72  49  44 S15       30.35F
SANTA FE       FAIR      77  51  40 SE24G33   30.30F
TAOS           FAIR      77  48  36 W13G18      N/A
ANGEL FIRE     FAIR      69  51  52 S18G28    30.41F

$$
NMZ402-403-502-505>509-242000-
WESTCENTRAL MOUNTAINS/SOUTHWEST MOUNTAINS

CITY           SKY/WX    TMP DP  RH WIND       PRES   REMARKS
GALLUP         FAIR      92  30  11 MISG      30.24F
GRANTS         FAIR      85  48  27 SE14G21   30.29F
SILVER CITY    FAIR      91  49  23 SE14G23   30.19F

$$
NMZ407-409-411-412-242000-
SOUTHERN DESERTS

CITY           SKY/WX    TMP DP  RH WIND       PRES   REMARKS
DEMING         FAIR      95  52  23 E12       30.10F
LAS CRUCES     FAIR      92  50  23 E14G25    30.15S
HOLLOMAN AFB   FAIR      92  51  24 S10       30.13F
ALAMOGORDO     FAIR      91  48  22 S10G21    30.13F
T OR C         FAIR      91  54  28 VRB5      30.15F

$$
NMZ519>523-242000-
CENTRAL VALLEYS/CENTRAL HIGHLANDS

CITY           SKY/WX    TMP DP  RH WIND       PRES   REMARKS
ALBUQUERQUE    CLOUDY    83  53  35 S8        30.23F
DOUBLE EAGLE   PTSUNNY   81  54  39 VRB7      30.27F
CLINES CORNERS FAIR      69  47  45 SE13      30.40F
BELEN          FAIR      86  49  27 SE9       30.22F
SOCORRO        FAIR      89  49  25 SE5       30.18F

$$
NMZ524>526-539-540-242000-
SOUTHCENTRAL MOUNTAINS

CITY           SKY/WX    TMP DP  RH WIND       PRES   REMARKS
RUIDOSO        FAIR      64  48  55 E13G20    30.42F

$$
NMZ527>531-242000-
NORTHEAST HIGHLANDS/NORTHEAST PLAINS

CITY           SKY/WX    TMP DP  RH WIND       PRES   REMARKS
LAS VEGAS      PTSUNNY   67  45  45 SE13G21   30.40S
RATON          CLOUDY    64  46  52 S12G24    30.36F
CLAYTON        CLOUDY    67  48  50 SE16G25   30.33F

$$
NMZ532>537-242000-
EASTCENTRAL PLAINS

CITY           SKY/WX    TMP DP  RH WIND       PRES   REMARKS
SANTA ROSA     CLOUDY    71  51  50 SE12      30.30F
TUCUMCARI      CLOUDY    71  54  54 VRB3      30.28F
CANNON AFB     CLOUDY    70  58  66 SE15      30.31F
CLOVIS AIRPORT CLOUDY    68  56  65 SE13      30.32F

$$
NMZ028-029-538-242000-
SOUTHEAST PLAINS

CITY           SKY/WX    TMP DP  RH WIND       PRES   REMARKS
ROSWELL        CLOUDY    79  55  43 E7        30.25F
ARTESIA        CLOUDY    77  59  53 SE8       30.25F
CARLSBAD       CLOUDY    80  61  52 SE14      30.21F
HOBBS          CLOUDY    72  61  68 E12       30.28F


$$




USA.gov is the U.S. government's official web portal to all federal, state and local government web resources and services.